owner,sensor,date,latitude,longitude,vertical_datum,wind_speed,wind_to_direction,wind_speed_of_gust,qcFlag 
WAVCIS,ioos:station:WAVCIS:CSI09:1,2015-06-17T05:00:00Z,29.1015,-89.9782,0.0,6.509,129.0,,'11111222,11111222,99999999' 
WAVCIS,ioos:station:WAVCIS:CSI09:1,2015-06-17T06:00:00Z,29.1015,-89.9782,0.0,6.698,140.0,,'11111222,11111222,99999999' 
WAVCIS,ioos:station:WAVCIS:CSI09:1,2015-06-17T07:00:00Z,29.1015,-89.9782,0.0,6.388,148.0,,'11111222,11111222,99999999' 
WAVCIS,ioos:station:WAVCIS:CSI09:1,2015-06-17T08:00:00Z,29.1015,-89.9782,0.0,5.954,159.0,,'11111222,11111222,99999999' 
WAVCIS,ioos:station:WAVCIS:CSI09:1,2015-06-17T09:00:00Z,29.1015,-89.9782,0.0,5.287,146.0,,'11111222,11111222,99999999' 
WAVCIS,ioos:station:WAVCIS:CSI09:1,2015-06-17T10:00:00Z,29.1015,-89.9782,0.0,5.449,145.0,,'11111222,11111222,99999999' 
WAVCIS,ioos:station:WAVCIS:CSI09:1,2015-06-17T11:00:00Z,29.1015,-89.9782,0.0,4.817,143.0,,'11111222,11111222,99999999' 
WAVCIS,ioos:station:WAVCIS:CSI09:1,2015-06-17T12:00:00Z,29.1015,-89.9782,0.0,4.772,142.0,,'11111222,11111222,99999999' 
WAVCIS,ioos:station:WAVCIS:CSI09:1,2015-06-17T13:00:00Z,29.1015,-89.9782,0.0,5.121,135.0,,'11111222,11111222,99999999' 
WAVCIS,ioos:station:WAVCIS:CSI09:1,2015-06-17T14:00:00Z,29.1015,-89.9782,0.0,5.774,144.0,,'11111222,11111222,99999999' 
WAVCIS,ioos:station:WAVCIS:CSI09:1,2015-06-17T15:00:00Z,29.1015,-89.9782,0.0,5.681,136.0,,'11111222,11111222,99999999' 
WAVCIS,ioos:station:WAVCIS:CSI09:1,2015-06-17T16:00:00Z,29.1015,-89.9782,0.0,6.115,128.0,,'11111222,11111222,99999999' 
WAVCIS,ioos:station:WAVCIS:CSI09:1,2015-06-17T17:00:00Z,29.1015,-89.9782,0.0,7.33,129.0,,'11111222,11111222,99999999' 
WAVCIS,ioos:station:WAVCIS:CSI09:1,2015-06-17T18:00:00Z,29.1015,-89.9782,0.0,7.55,137.0,,'11111222,11111222,99999999' 
WAVCIS,ioos:station:WAVCIS:CSI09:1,2015-06-17T19:00:00Z,29.1015,-89.9782,0.0,7.6,137.0,,'11111222,11111222,99999999' 
WAVCIS,ioos:station:WAVCIS:CSI09:1,2015-06-17T20:00:00Z,29.1015,-89.9782,0.0,7.32,138.0,,'11111222,11111222,99999999' 
WAVCIS,ioos:station:WAVCIS:CSI09:1,2015-06-17T21:00:00Z,29.1015,-89.9782,0.0,7.43,138.0,,'11111222,11111222,99999999' 
WAVCIS,ioos:station:WAVCIS:CSI09:1,2015-06-17T22:00:00Z,29.1015,-89.9782,0.0,6.836,149.0,,'11111222,11111222,99999999' 
WAVCIS,ioos:station:WAVCIS:CSI09:1,2015-06-17T23:00:00Z,29.1015,-89.9782,0.0,5.796,152.0,,'11111222,11111222,99999999' 
WAVCIS,ioos:station:WAVCIS:CSI09:1,2015-06-18T00:00:00Z,29.1015,-89.9782,0.0,5.593,155.0,,'11111222,11111222,99999999' 
WAVCIS,ioos:station:WAVCIS:CSI09:1,2015-06-18T01:00:00Z,29.1015,-89.9782,0.0,5.491,164.0,,'11111222,11111222,99999999' 
WAVCIS,ioos:station:WAVCIS:CSI09:1,2015-06-18T02:00:00Z,29.1015,-89.9782,0.0,5.506,161.0,,'11111222,11111222,99999999' 
WAVCIS,ioos:station:WAVCIS:CSI09:1,2015-06-18T03:00:00Z,29.1015,-89.9782,0.0,5.867,165.0,,'11111222,11111222,99999999' 
WAVCIS,ioos:station:WAVCIS:CSI09:1,2015-06-18T04:00:00Z,29.1015,-89.9782,0.0,5.565,166.0,,'11111222,11111222,99999999' 
WAVCIS,ioos:station:WAVCIS:CSI09:1,2015-06-18T05:00:00Z,29.1015,-89.9782,0.0,5.813,173.0,,'11111222,11111222,99999999' 
WAVCIS,ioos:station:WAVCIS:CSI09:1,2015-06-18T06:00:00Z,29.1015,-89.9782,0.0,5.048,164.0,,'11111222,11111222,99999999' 
WAVCIS,ioos:station:WAVCIS:CSI09:1,2015-06-18T07:00:00Z,29.1015,-89.9782,0.0,6.145,155.0,,'11111222,11111222,99999999' 
WAVCIS,ioos:station:WAVCIS:CSI09:1,2015-06-18T08:00:00Z,29.1015,-89.9782,0.0,5.014,161.0,,'11111222,11111222,99999999' 
WAVCIS,ioos:station:WAVCIS:CSI09:1,2015-06-18T09:00:00Z,29.1015,-89.9782,0.0,4.631,167.0,,'11111222,11111222,99999999' 
WAVCIS,ioos:station:WAVCIS:CSI09:1,2015-06-18T10:00:00Z,29.1015,-89.9782,0.0,4.593,165.0,,'11111222,11111222,99999999' 
WAVCIS,ioos:station:WAVCIS:CSI09:1,2015-06-18T11:00:00Z,29.1015,-89.9782,0.0,5.001,162.0,,'11111222,11111222,99999999' 
WAVCIS,ioos:station:WAVCIS:CSI09:1,2015-06-18T12:00:00Z,29.1015,-89.9782,0.0,4.961,161.0,,'11111222,11111222,99999999' 
WAVCIS,ioos:station:WAVCIS:CSI09:1,2015-06-18T13:00:00Z,29.1015,-89.9782,0.0,5.053,155.0,,'11111222,11111222,99999999' 
WAVCIS,ioos:station:WAVCIS:CSI09:1,2015-06-18T14:00:00Z,29.1015,-89.9782,0.0,5.369,146.0,,'11111222,11111222,99999999' 
WAVCIS,ioos:station:WAVCIS:CSI09:1,2015-06-18T15:00:00Z,29.1015,-89.9782,0.0,4.212,149.0,,'11111222,11111222,99999999' 
WAVCIS,ioos:station:WAVCIS:CSI09:1,2015-06-18T16:00:00Z,29.1015,-89.9782,0.0,5.193,149.0,,'11111222,11111222,99999999' 
WAVCIS,ioos:station:WAVCIS:CSI09:1,2015-06-18T17:00:00Z,29.1015,-89.9782,0.0,5.009,162.0,,'11111222,11111222,99999999' 
WAVCIS,ioos:station:WAVCIS:CSI09:1,2015-06-18T18:00:00Z,29.1015,-89.9782,0.0,4.392,160.0,,'11111222,11111222,99999999' 
WAVCIS,ioos:station:WAVCIS:CSI09:1,2015-06-18T19:00:00Z,29.1015,-89.9782,0.0,4.252,160.0,,'11111222,11111222,99999999' 
WAVCIS,ioos:station:WAVCIS:CSI09:1,2015-06-18T20:00:00Z,29.1015,-89.9782,0.0,5.486,163.0,,'11111222,11111222,99999999' 
WAVCIS,ioos:station:WAVCIS:CSI09:1,2015-06-18T21:00:00Z,29.1015,-89.9782,0.0,5.339,171.0,,'11111222,11111222,99999999' 
WAVCIS,ioos:station:WAVCIS:CSI09:1,2015-06-18T22:00:00Z,29.1015,-89.9782,0.0,5.226,166.0,,'11111222,11111222,99999999' 
WAVCIS,ioos:station:WAVCIS:CSI09:1,2015-06-18T23:00:00Z,29.1015,-89.9782,0.0,5.248,168.0,,'11111222,11111222,99999999' 
WAVCIS,ioos:station:WAVCIS:CSI09:1,2015-06-19T00:00:00Z,29.1015,-89.9782,0.0,4.897,171.0,,'11111222,11111222,99999999' 
WAVCIS,ioos:station:WAVCIS:CSI09:1,2015-06-19T01:00:00Z,29.1015,-89.9782,0.0,5.332,170.0,,'11111222,11111222,99999999' 
WAVCIS,ioos:station:WAVCIS:CSI09:1,2015-06-19T02:00:00Z,29.1015,-89.9782,0.0,5.323,167.0,,'11111222,11111222,99999999' 
WAVCIS,ioos:station:WAVCIS:CSI09:1,2015-06-19T03:00:00Z,29.1015,-89.9782,0.0,5.381,163.0,,'11111222,11111222,99999999' 
WAVCIS,ioos:station:WAVCIS:CSI09:1,2015-06-19T04:00:00Z,29.1015,-89.9782,0.0,5.52,171.0,,'11111222,11111222,99999999' 
WAVCIS,ioos:station:WAVCIS:CSI09:1,2015-06-19T05:00:00Z,29.1015,-89.9782,0.0,6.134,173.0,,'11111222,11111222,99999999' 
WAVCIS,ioos:station:WAVCIS:CSI09:1,2015-06-19T06:00:00Z,29.1015,-89.9782,0.0,6.254,173.0,,'11111222,11111222,99999999' 
WAVCIS,ioos:station:WAVCIS:CSI09:1,2015-06-19T07:00:00Z,29.1015,-89.9782,0.0,5.978,175.0,,'11111222,11111222,99999999' 
WAVCIS,ioos:station:WAVCIS:CSI09:1,2015-06-19T08:00:00Z,29.1015,-89.9782,0.0,3.032,202.0,,'11111222,11111222,99999999' 
WAVCIS,ioos:station:WAVCIS:CSI09:1,2015-06-19T09:00:00Z,29.1015,-89.9782,0.0,4.044,186.0,,'11111222,11111222,99999999' 
WAVCIS,ioos:station:WAVCIS:CSI09:1,2015-06-19T10:00:00Z,29.1015,-89.9782,0.0,4.441,180.0,,'11111222,11111222,99999999' 
WAVCIS,ioos:station:WAVCIS:CSI09:1,2015-06-19T11:00:00Z,29.1015,-89.9782,0.0,3.745,181.0,,'11111222,11111222,99999999' 
WAVCIS,ioos:station:WAVCIS:CSI09:1,2015-06-19T12:00:00Z,29.1015,-89.9782,0.0,2.608,210.0,,'11111222,11111222,99999999' 
WAVCIS,ioos:station:WAVCIS:CSI09:1,2015-06-19T13:00:00Z,29.1015,-89.9782,0.0,2.359,211.0,,'11111222,11111222,99999999' 
WAVCIS,ioos:station:WAVCIS:CSI09:1,2015-06-19T14:00:00Z,29.1015,-89.9782,0.0,2.584,195.0,,'11111222,11111222,99999999' 
WAVCIS,ioos:station:WAVCIS:CSI09:1,2015-06-19T15:00:00Z,29.1015,-89.9782,0.0,2.691,225.0,,'11111222,11111222,99999999' 
WAVCIS,ioos:station:WAVCIS:CSI09:1,2015-06-19T16:00:00Z,29.1015,-89.9782,0.0,2.524,214.0,,'11111222,11111222,99999999' 
WAVCIS,ioos:station:WAVCIS:CSI09:1,2015-06-19T17:00:00Z,29.1015,-89.9782,0.0,3.258,191.0,,'11111222,11111222,99999999' 
WAVCIS,ioos:station:WAVCIS:CSI09:1,2015-06-19T18:00:00Z,29.1015,-89.9782,0.0,2.543,228.0,,'11111222,11111222,99999999' 
WAVCIS,ioos:station:WAVCIS:CSI09:1,2015-06-19T19:00:00Z,29.1015,-89.9782,0.0,2.576,220.0,,'11111222,11111222,99999999' 
WAVCIS,ioos:station:WAVCIS:CSI09:1,2015-06-19T20:00:00Z,29.1015,-89.9782,0.0,3.708,225.0,,'11111222,11111222,99999999' 
WAVCIS,ioos:station:WAVCIS:CSI09:1,2015-06-19T21:00:00Z,29.1015,-89.9782,0.0,4.476,231.0,,'11111222,11111222,99999999' 
WAVCIS,ioos:station:WAVCIS:CSI09:1,2015-06-19T22:00:00Z,29.1015,-89.9782,0.0,3.324,212.0,,'11111222,11111222,99999999' 
WAVCIS,ioos:station:WAVCIS:CSI09:1,2015-06-19T23:00:00Z,29.1015,-89.9782,0.0,5.089,225.0,,'11111222,11111222,99999999' 
WAVCIS,ioos:station:WAVCIS:CSI09:1,2015-06-20T00:00:00Z,29.1015,-89.9782,0.0,5.442,227.0,,'11111222,11111222,99999999' 
WAVCIS,ioos:station:WAVCIS:CSI09:1,2015-06-20T01:00:00Z,29.1015,-89.9782,0.0,3.434,218.0,,'11111222,11111222,99999999' 
WAVCIS,ioos:station:WAVCIS:CSI09:1,2015-06-20T02:00:00Z,29.1015,-89.9782,0.0,4.074,219.0,,'11111222,11111222,99999999' 
WAVCIS,ioos:station:WAVCIS:CSI09:1,2015-06-20T03:00:00Z,29.1015,-89.9782,0.0,4.735,227.0,,'11111222,11111222,99999999' 
WAVCIS,ioos:station:WAVCIS:CSI09:1,2015-06-20T04:00:00Z,29.1015,-89.9782,0.0,4.026,228.0,,'11111222,11111222,99999999' 
WAVCIS,ioos:station:WAVCIS:CSI09:1,2015-06-20T05:00:00Z,29.1015,-89.9782,0.0,4.328,231.0,,'11111222,11111222,99999999' 
WAVCIS,ioos:station:WAVCIS:CSI09:1,2015-06-20T06:00:00Z,29.1015,-89.9782,0.0,4.828,233.0,,'11111222,11111222,99999999' 
WAVCIS,ioos:station:WAVCIS:CSI09:1,2015-06-20T07:00:00Z,29.1015,-89.9782,0.0,5.131,222.0,,'11111222,11111222,99999999' 
WAVCIS,ioos:station:WAVCIS:CSI09:1,2015-06-20T08:00:00Z,29.1015,-89.9782,0.0,3.852,215.0,,'11111222,11111222,99999999' 
WAVCIS,ioos:station:WAVCIS:CSI09:1,2015-06-20T09:00:00Z,29.1015,-89.9782,0.0,3.978,211.0,,'11111222,11111222,99999999' 
WAVCIS,ioos:station:WAVCIS:CSI09:1,2015-06-20T10:00:00Z,29.1015,-89.9782,0.0,5.284,219.0,,'11111222,11111222,99999999' 
WAVCIS,ioos:station:WAVCIS:CSI09:1,2015-06-20T11:00:00Z,29.1015,-89.9782,0.0,5.305,220.0,,'11111222,11111222,99999999' 
WAVCIS,ioos:station:WAVCIS:CSI09:1,2015-06-20T12:00:00Z,29.1015,-89.9782,0.0,4.238,217.0,,'11111222,11111222,99999999' 
WAVCIS,ioos:station:WAVCIS:CSI09:1,2015-06-20T13:00:00Z,29.1015,-89.9782,0.0,5.349,229.0,,'11111222,11111222,99999999' 
WAVCIS,ioos:station:WAVCIS:CSI09:1,2015-06-20T14:00:00Z,29.1015,-89.9782,0.0,4.548,234.0,,'11111222,11111222,99999999' 
WAVCIS,ioos:station:WAVCIS:CSI09:1,2015-06-20T15:00:00Z,29.1015,-89.9782,0.0,2.82,220.0,,'11111222,11111222,99999999' 
WAVCIS,ioos:station:WAVCIS:CSI09:1,2015-06-20T16:00:00Z,29.1015,-89.9782,0.0,4.218,231.0,,'11111222,11111222,99999999' 
WAVCIS,ioos:station:WAVCIS:CSI09:1,2015-06-20T17:00:00Z,29.1015,-89.9782,0.0,3.833,232.0,,'11111222,11111222,99999999' 
WAVCIS,ioos:station:WAVCIS:CSI09:1,2015-06-20T18:00:00Z,29.1015,-89.9782,0.0,4.326,234.0,,'11111222,11111222,99999999' 
WAVCIS,ioos:station:WAVCIS:CSI09:1,2015-06-20T19:00:00Z,29.1015,-89.9782,0.0,4.446,234.0,,'11111222,11111222,99999999' 
WAVCIS,ioos:station:WAVCIS:CSI09:1,2015-06-20T20:00:00Z,29.1015,-89.9782,0.0,4.223,232.0,,'11111222,11111222,99999999' 
WAVCIS,ioos:station:WAVCIS:CSI09:1,2015-06-20T21:00:00Z,29.1015,-89.9782,0.0,4.483,230.0,,'11111222,11111222,99999999' 
WAVCIS,ioos:station:WAVCIS:CSI09:1,2015-06-20T22:00:00Z,29.1015,-89.9782,0.0,4.051,224.0,,'11111222,11111222,99999999' 
WAVCIS,ioos:station:WAVCIS:CSI09:1,2015-06-20T23:00:00Z,29.1015,-89.9782,0.0,3.576,225.0,,'11111222,11111222,99999999' 
WAVCIS,ioos:station:WAVCIS:CSI09:1,2015-06-21T00:00:00Z,29.1015,-89.9782,0.0,2.494,216.0,,'11111222,11111222,99999999' 
WAVCIS,ioos:station:WAVCIS:CSI09:1,2015-06-21T01:00:00Z,29.1015,-89.9782,0.0,3.284,224.0,,'11111222,11111222,99999999' 
WAVCIS,ioos:station:WAVCIS:CSI09:1,2015-06-21T02:00:00Z,29.1015,-89.9782,0.0,2.964,218.0,,'11111222,11111222,99999999' 
WAVCIS,ioos:station:WAVCIS:CSI09:1,2015-06-21T03:00:00Z,29.1015,-89.9782,0.0,2.965,219.0,,'11111222,11111222,99999999' 
WAVCIS,ioos:station:WAVCIS:CSI09:1,2015-06-21T04:00:00Z,29.1015,-89.9782,0.0,3.43,218.0,,'11111222,11111222,99999999' 
WAVCIS,ioos:station:WAVCIS:CSI09:1,2015-06-21T05:00:00Z,29.1015,-89.9782,0.0,3.08,213.0,,'11111222,11111222,99999999' 
WAVCIS,ioos:station:WAVCIS:CSI09:1,2015-06-21T06:00:00Z,29.1015,-89.9782,0.0,2.951,210.0,,'11111222,11111222,99999999' 
WAVCIS,ioos:station:WAVCIS:CSI09:1,2015-06-21T07:00:00Z,29.1015,-89.9782,0.0,3.363,214.0,,'11111222,11111222,99999999' 
WAVCIS,ioos:station:WAVCIS:CSI09:1,2015-06-21T08:00:00Z,29.1015,-89.9782,0.0,3.446,219.0,,'11111222,11111222,99999999' 
WAVCIS,ioos:station:WAVCIS:CSI09:1,2015-06-21T09:00:00Z,29.1015,-89.9782,0.0,4.852,226.0,,'11111222,11111222,99999999' 
WAVCIS,ioos:station:WAVCIS:CSI09:1,2015-06-21T10:00:00Z,29.1015,-89.9782,0.0,4.538,229.0,,'11111222,11111222,99999999' 
WAVCIS,ioos:station:WAVCIS:CSI09:1,2015-06-21T11:00:00Z,29.1015,-89.9782,0.0,3.804,241.0,,'11111222,11111222,99999999' 
WAVCIS,ioos:station:WAVCIS:CSI09:1,2015-06-21T12:00:00Z,29.1015,-89.9782,0.0,3.001,237.0,,'11111222,11111222,99999999' 
WAVCIS,ioos:station:WAVCIS:CSI09:1,2015-06-21T13:00:00Z,29.1015,-89.9782,0.0,1.821,233.0,,'11111222,11111222,99999999' 
WAVCIS,ioos:station:WAVCIS:CSI09:1,2015-06-21T14:00:00Z,29.1015,-89.9782,0.0,2.237,264.0,,'11111222,11111222,99999999' 
WAVCIS,ioos:station:WAVCIS:CSI09:1,2015-06-21T15:00:00Z,29.1015,-89.9782,0.0,1.919,248.0,,'11111222,11111222,99999999' 
WAVCIS,ioos:station:WAVCIS:CSI09:1,2015-06-21T16:00:00Z,29.1015,-89.9782,0.0,1.126,105.0,,'11111222,11111222,99999999' 
WAVCIS,ioos:station:WAVCIS:CSI09:1,2015-06-21T17:00:00Z,29.1015,-89.9782,0.0,1.323,120.0,,'11111222,11111222,99999999' 
WAVCIS,ioos:station:WAVCIS:CSI09:1,2015-06-21T18:00:00Z,29.1015,-89.9782,0.0,0.957,150.0,,'11111222,11111222,99999999' 
WAVCIS,ioos:station:WAVCIS:CSI09:1,2015-06-21T19:00:00Z,29.1015,-89.9782,0.0,2.8,149.0,,'11111222,11111222,99999999' 
WAVCIS,ioos:station:WAVCIS:CSI09:1,2015-06-21T20:00:00Z,29.1015,-89.9782,0.0,2.664,160.0,,'11111222,11111222,99999999' 
WAVCIS,ioos:station:WAVCIS:CSI09:1,2015-06-21T21:00:00Z,29.1015,-89.9782,0.0,2.475,164.0,,'11111222,11111222,99999999' 
WAVCIS,ioos:station:WAVCIS:CSI09:1,2015-06-21T22:00:00Z,29.1015,-89.9782,0.0,2.724,187.0,,'11111222,11111222,99999999' 
WAVCIS,ioos:station:WAVCIS:CSI09:1,2015-06-21T23:00:00Z,29.1015,-89.9782,0.0,2.144,210.0,,'11111222,11111222,99999999' 
WAVCIS,ioos:station:WAVCIS:CSI09:1,2015-06-22T00:00:00Z,29.1015,-89.9782,0.0,2.432,193.0,,'11111222,11111222,99999999' 
WAVCIS,ioos:station:WAVCIS:CSI09:1,2015-06-22T01:00:00Z,29.1015,-89.9782,0.0,2.215,191.0,,'11111222,11111222,99999999' 
WAVCIS,ioos:station:WAVCIS:CSI09:1,2015-06-22T02:00:00Z,29.1015,-89.9782,0.0,2.935,160.0,,'11111222,11111222,99999999' 
WAVCIS,ioos:station:WAVCIS:CSI09:1,2015-06-22T03:00:00Z,29.1015,-89.9782,0.0,2.204,188.0,,'11111222,11111222,99999999' 
WAVCIS,ioos:station:WAVCIS:CSI09:1,2015-06-22T04:00:00Z,29.1015,-89.9782,0.0,2.274,216.0,,'11111222,11111222,99999999' 
WAVCIS,ioos:station:WAVCIS:CSI09:1,2015-06-22T05:00:00Z,29.1015,-89.9782,0.0,4.421,225.0,,'11111222,11111222,99999999' 
WAVCIS,ioos:station:WAVCIS:CSI09:1,2015-06-22T06:00:00Z,29.1015,-89.9782,0.0,3.525,229.0,,'11111222,11111222,99999999' 
WAVCIS,ioos:station:WAVCIS:CSI09:1,2015-06-22T07:00:00Z,29.1015,-89.9782,0.0,2.697,226.0,,'11111222,11111222,99999999' 
WAVCIS,ioos:station:WAVCIS:CSI09:1,2015-06-22T08:00:00Z,29.1015,-89.9782,0.0,2.533,238.0,,'11111222,11111222,99999999' 
WAVCIS,ioos:station:WAVCIS:CSI09:1,2015-06-22T09:00:00Z,29.1015,-89.9782,0.0,2.115,235.0,,'11111222,11111222,99999999' 
WAVCIS,ioos:station:WAVCIS:CSI09:1,2015-06-22T10:00:00Z,29.1015,-89.9782,0.0,2.779,233.0,,'11111222,11111222,99999999' 
WAVCIS,ioos:station:WAVCIS:CSI09:1,2015-06-22T11:00:00Z,29.1015,-89.9782,0.0,2.399,249.0,,'11111222,11111222,99999999' 
WAVCIS,ioos:station:WAVCIS:CSI09:1,2015-06-22T12:00:00Z,29.1015,-89.9782,0.0,1.125,259.0,,'11111222,11111222,99999999' 
WAVCIS,ioos:station:WAVCIS:CSI09:1,2015-06-22T13:00:00Z,29.1015,-89.9782,0.0,0.913,323.0,,'11111222,11111222,99999999' 
WAVCIS,ioos:station:WAVCIS:CSI09:1,2015-06-22T14:00:00Z,29.1015,-89.9782,0.0,1.027,288.0,,'11111222,11111222,99999999' 
WAVCIS,ioos:station:WAVCIS:CSI09:1,2015-06-22T15:00:00Z,29.1015,-89.9782,0.0,0.842,352.0,,'11111222,11111222,99999999' 
WAVCIS,ioos:station:WAVCIS:CSI09:1,2015-06-22T16:00:00Z,29.1015,-89.9782,0.0,2.288,240.0,,'11111222,11111222,99999999' 
WAVCIS,ioos:station:WAVCIS:CSI09:1,2015-06-22T17:00:00Z,29.1015,-89.9782,0.0,5.657,62.0,,'11111222,11111222,99999999' 
WAVCIS,ioos:station:WAVCIS:CSI09:1,2015-06-22T18:00:00Z,29.1015,-89.9782,0.0,1.266,66.0,,'11111222,11111222,99999999' 
WAVCIS,ioos:station:WAVCIS:CSI09:1,2015-06-22T19:00:00Z,29.1015,-89.9782,0.0,2.114,127.0,,'11111222,11111222,99999999' 
WAVCIS,ioos:station:WAVCIS:CSI09:1,2015-06-22T20:00:00Z,29.1015,-89.9782,0.0,2.599,160.0,,'11111222,11111222,99999999' 
WAVCIS,ioos:station:WAVCIS:CSI09:1,2015-06-22T21:00:00Z,29.1015,-89.9782,0.0,1.077,242.0,,'11111222,11111222,99999999' 
WAVCIS,ioos:station:WAVCIS:CSI09:1,2015-06-22T22:00:00Z,29.1015,-89.9782,0.0,1.322,55.0,,'11111222,11111222,99999999' 
WAVCIS,ioos:station:WAVCIS:CSI09:1,2015-06-22T23:00:00Z,29.1015,-89.9782,0.0,0.597,341.0,,'11111222,11111222,99999999' 
WAVCIS,ioos:station:WAVCIS:CSI09:1,2015-06-23T00:00:00Z,29.1015,-89.9782,0.0,0.913,58.0,,'11111222,11111222,99999999' 
WAVCIS,ioos:station:WAVCIS:CSI09:1,2015-06-23T01:00:00Z,29.1015,-89.9782,0.0,0.947,31.0,,'11111222,11111222,99999999' 
WAVCIS,ioos:station:WAVCIS:CSI09:1,2015-06-23T02:00:00Z,29.1015,-89.9782,0.0,1.603,38.0,,'11111222,11111222,99999999' 
WAVCIS,ioos:station:WAVCIS:CSI09:1,2015-06-23T03:00:00Z,29.1015,-89.9782,0.0,1.041,94.0,,'11111222,11111222,99999999' 
WAVCIS,ioos:station:WAVCIS:CSI09:1,2015-06-23T04:00:00Z,29.1015,-89.9782,0.0,2.11,142.0,,'11111222,11111222,99999999' 
WAVCIS,ioos:station:WAVCIS:CSI09:1,2015-06-23T05:00:00Z,29.1015,-89.9782,0.0,3.736,155.0,,'11111222,11111222,99999999' 
WAVCIS,ioos:station:WAVCIS:CSI09:1,2015-06-23T06:00:00Z,29.1015,-89.9782,0.0,4.416,155.0,,'11111222,11111222,99999999' 
WAVCIS,ioos:station:WAVCIS:CSI09:1,2015-06-23T07:00:00Z,29.1015,-89.9782,0.0,2.12,150.0,,'11111222,11111222,99999999' 
WAVCIS,ioos:station:WAVCIS:CSI09:1,2015-06-23T08:00:00Z,29.1015,-89.9782,0.0,0.942,93.0,,'11111222,11111222,99999999' 
WAVCIS,ioos:station:WAVCIS:CSI09:1,2015-06-23T09:00:00Z,29.1015,-89.9782,0.0,1.21,31.0,,'11111222,11111222,99999999' 
WAVCIS,ioos:station:WAVCIS:CSI09:1,2015-06-23T10:00:00Z,29.1015,-89.9782,0.0,1.96,26.0,,'11111222,11111222,99999999' 
WAVCIS,ioos:station:WAVCIS:CSI09:1,2015-06-23T11:00:00Z,29.1015,-89.9782,0.0,2.541,24.0,,'11111222,11111222,99999999' 
WAVCIS,ioos:station:WAVCIS:CSI09:1,2015-06-23T12:00:00Z,29.1015,-89.9782,0.0,2.408,17.0,,'11111222,11111222,99999999' 
WAVCIS,ioos:station:WAVCIS:CSI09:1,2015-06-23T13:00:00Z,29.1015,-89.9782,0.0,2.739,15.0,,'11111222,11111222,99999999' 
WAVCIS,ioos:station:WAVCIS:CSI09:1,2015-06-23T14:00:00Z,29.1015,-89.9782,0.0,2.864,15.0,,'11111222,11111222,99999999' 
WAVCIS,ioos:station:WAVCIS:CSI09:1,2015-06-23T15:00:00Z,29.1015,-89.9782,0.0,1.68,7.0,,'11111222,11111222,99999999' 
WAVCIS,ioos:station:WAVCIS:CSI09:1,2015-06-23T16:00:00Z,29.1015,-89.9782,0.0,1.143,62.0,,'11111222,11111222,99999999' 
WAVCIS,ioos:station:WAVCIS:CSI09:1,2015-06-23T17:00:00Z,29.1015,-89.9782,0.0,1.077,106.0,,'11111222,11111222,99999999' 
WAVCIS,ioos:station:WAVCIS:CSI09:1,2015-06-23T18:00:00Z,29.1015,-89.9782,0.0,0.969,119.0,,'11111222,11111222,99999999' 
WAVCIS,ioos:station:WAVCIS:CSI09:1,2015-06-23T19:00:00Z,29.1015,-89.9782,0.0,2.209,154.0,,'11111222,11111222,99999999' 
WAVCIS,ioos:station:WAVCIS:CSI09:1,2015-06-23T20:00:00Z,29.1015,-89.9782,0.0,1.799,155.0,,'11111222,11111222,99999999' 
WAVCIS,ioos:station:WAVCIS:CSI09:1,2015-06-23T21:00:00Z,29.1015,-89.9782,0.0,1.076,205.0,,'11111222,11111222,99999999' 
WAVCIS,ioos:station:WAVCIS:CSI09:1,2015-06-23T22:00:00Z,29.1015,-89.9782,0.0,0.714,85.0,,'11111222,11111222,99999999' 
WAVCIS,ioos:station:WAVCIS:CSI09:1,2015-06-23T23:00:00Z,29.1015,-89.9782,0.0,1.811,158.0,,'11111222,11111222,99999999' 
WAVCIS,ioos:station:WAVCIS:CSI09:1,2015-06-24T00:00:00Z,29.1015,-89.9782,0.0,0.675,309.0,,'11111222,11111222,99999999' 
WAVCIS,ioos:station:WAVCIS:CSI09:1,2015-06-24T01:00:00Z,29.1015,-89.9782,0.0,0.689,256.0,,'11111222,11111222,99999999' 
WAVCIS,ioos:station:WAVCIS:CSI09:1,2015-06-24T02:00:00Z,29.1015,-89.9782,0.0,1.429,141.0,,'11111222,11111222,99999999' 
WAVCIS,ioos:station:WAVCIS:CSI09:1,2015-06-24T03:00:00Z,29.1015,-89.9782,0.0,1.567,131.0,,'11111222,11111222,99999999' 
WAVCIS,ioos:station:WAVCIS:CSI09:1,2015-06-24T04:00:00Z,29.1015,-89.9782,0.0,1.835,142.0,,'11111222,11111222,99999999' 
WAVCIS,ioos:station:WAVCIS:CSI09:1,2015-06-24T05:00:00Z,29.1015,-89.9782,0.0,2.59,149.0,,'11111222,11111222,99999999' 
WAVCIS,ioos:station:WAVCIS:CSI09:1,2015-06-24T06:00:00Z,29.1015,-89.9782,0.0,2.616,200.0,,'11111222,11111222,99999999' 
WAVCIS,ioos:station:WAVCIS:CSI09:1,2015-06-24T07:00:00Z,29.1015,-89.9782,0.0,2.369,214.0,,'11111222,11111222,99999999' 
WAVCIS,ioos:station:WAVCIS:CSI09:1,2015-06-24T08:00:00Z,29.1015,-89.9782,0.0,1.856,273.0,,'11111222,11111222,99999999' 
WAVCIS,ioos:station:WAVCIS:CSI09:1,2015-06-24T09:00:00Z,29.1015,-89.9782,0.0,5.765,353.0,,'11111222,11111222,99999999' 
WAVCIS,ioos:station:WAVCIS:CSI09:1,2015-06-24T10:00:00Z,29.1015,-89.9782,0.0,2.602,293.0,,'11111222,11111222,99999999' 
WAVCIS,ioos:station:WAVCIS:CSI09:1,2015-06-24T11:00:00Z,29.1015,-89.9782,0.0,2.36,325.0,,'11111222,11111222,99999999' 
WAVCIS,ioos:station:WAVCIS:CSI09:1,2015-06-24T12:00:00Z,29.1015,-89.9782,0.0,3.241,357.0,,'11111222,11111222,99999999' 
WAVCIS,ioos:station:WAVCIS:CSI09:1,2015-06-24T13:00:00Z,29.1015,-89.9782,0.0,2.714,28.0,,'11111222,11111222,99999999' 
WAVCIS,ioos:station:WAVCIS:CSI09:1,2015-06-24T14:00:00Z,29.1015,-89.9782,0.0,5.0,54.0,,'11111222,11111222,99999999' 
WAVCIS,ioos:station:WAVCIS:CSI09:1,2015-06-24T15:00:00Z,29.1015,-89.9782,0.0,1.289,110.0,,'11111222,11111222,99999999' 
WAVCIS,ioos:station:WAVCIS:CSI09:1,2015-06-24T16:00:00Z,29.1015,-89.9782,0.0,5.76,82.0,,'11111222,11111222,99999999' 
WAVCIS,ioos:station:WAVCIS:CSI09:1,2015-06-24T17:00:00Z,29.1015,-89.9782,0.0,6.985,70.0,,'11111222,11111222,99999999' 
WAVCIS,ioos:station:WAVCIS:CSI09:1,2015-06-24T18:00:00Z,29.1015,-89.9782,0.0,4.103,171.0,,'11111222,11111222,99999999' 
WAVCIS,ioos:station:WAVCIS:CSI09:1,2015-06-24T19:00:00Z,29.1015,-89.9782,0.0,2.544,206.0,,'11111222,11111222,99999999' 
WAVCIS,ioos:station:WAVCIS:CSI09:1,2015-06-24T20:00:00Z,29.1015,-89.9782,0.0,2.41,181.0,,'11111222,11111222,99999999' 
WAVCIS,ioos:station:WAVCIS:CSI09:1,2015-06-24T21:00:00Z,29.1015,-89.9782,0.0,1.988,207.0,,'11111222,11111222,99999999' 
WAVCIS,ioos:station:WAVCIS:CSI09:1,2015-06-24T22:00:00Z,29.1015,-89.9782,0.0,1.698,178.0,,'11111222,11111222,99999999' 
WAVCIS,ioos:station:WAVCIS:CSI09:1,2015-06-24T23:00:00Z,29.1015,-89.9782,0.0,1.935,162.0,,'11111222,11111222,99999999' 
WAVCIS,ioos:station:WAVCIS:CSI09:1,2015-06-25T00:00:00Z,29.1015,-89.9782,0.0,2.268,164.0,,'11111222,11111222,99999999' 
WAVCIS,ioos:station:WAVCIS:CSI09:1,2015-06-25T01:00:00Z,29.1015,-89.9782,0.0,2.022,201.0,,'11111222,11111222,99999999' 
WAVCIS,ioos:station:WAVCIS:CSI09:1,2015-06-25T02:00:00Z,29.1015,-89.9782,0.0,7.54,40.0,,'11111222,11111222,99999999' 
WAVCIS,ioos:station:WAVCIS:CSI09:1,2015-06-25T03:00:00Z,29.1015,-89.9782,0.0,2.7,43.0,,'11111222,11111222,99999999' 
WAVCIS,ioos:station:WAVCIS:CSI09:1,2015-06-25T04:00:00Z,29.1015,-89.9782,0.0,3.634,27.0,,'11111222,11111222,99999999' 
WAVCIS,ioos:station:WAVCIS:CSI09:1,2015-06-25T05:00:00Z,29.1015,-89.9782,0.0,0.634,29.0,,'11111222,11111222,99999999' 
WAVCIS,ioos:station:WAVCIS:CSI09:1,2015-06-25T06:00:00Z,29.1015,-89.9782,0.0,0.994,106.0,,'11111222,11111222,99999999' 
WAVCIS,ioos:station:WAVCIS:CSI09:1,2015-06-25T07:00:00Z,29.1015,-89.9782,0.0,2.298,231.0,,'11111222,11111222,99999999' 
WAVCIS,ioos:station:WAVCIS:CSI09:1,2015-06-25T08:00:00Z,29.1015,-89.9782,0.0,3.161,123.0,,'11111222,11111222,99999999' 
WAVCIS,ioos:station:WAVCIS:CSI09:1,2015-06-25T09:00:00Z,29.1015,-89.9782,0.0,2.451,105.0,,'11111222,11111222,99999999' 
WAVCIS,ioos:station:WAVCIS:CSI09:1,2015-06-25T10:00:00Z,29.1015,-89.9782,0.0,2.835,164.0,,'11111222,11111222,99999999' 
WAVCIS,ioos:station:WAVCIS:CSI09:1,2015-06-25T11:00:00Z,29.1015,-89.9782,0.0,3.454,158.0,,'11111222,11111222,99999999' 